Location: Harwich
(41.7160°N, 69.9939°W)
Time: 07:27:09
(UTC+02:00)

A-11 Canister half - Pass Details

Date: 01 December 2023
Orbit: 1523 x 1684 km, 47.3° (Epoch: 07 September)

Event Time Altitude Azimuth Distance (km) Brightness Sun altitude
Rises 22:28:26 0° 168° (SSE) 4,910 11.8 -3.8°
Reaches altitude 10° 22:34:34 10° 140° (SE) 3,939 11.0 -4.9°
Maximum altitude 22:37:51 12° 121° (ESE) 3,782 10.7 -5.4°
Drops below altitude 10° 22:41:07 10° 101° (E) 3,944 10.7 -6.0°
Enters shadow 22:44:31 - 84° (E) 4,407 10.8 -6.5°
Sets 22:47:11 0° 74° (ENE) 4,923 - -7.0°
